Torna al catalogo

TORO

AttivoScienzaSSO
NORAD 60530·PAYLOAD·🇹🇼 Taiwan
Questo nome del satellite non è ancora stato confermato da fonti ufficiali.

Lanciato Aug 16, 2024 da Vandenberg Space Force Base

Loading…

Prossimi Passaggi (prossime 24 ore)

TLE

AggiornatoSource: Space-Track

Epoca: Sep 14, 2026, 10:23 UTC

1 60530U 24149BQ  26257.43272157  .00001619  00000-0  14679-3 0  9994
2 60530  97.6719 330.4156 0001905  84.0062 276.1377 14.96693315113300

Traccia TORO in tempo reale con AllMySat

Download on the App Store